Time,TemperatureF,DewpointF,PressureIn,WindDirection,WindDirectionDegrees,WindSpeedMPH,WindSpeedGustMPH,Humidity,HourlyPrecipIn,Conditions,Clouds,dailyrainin,SolarRadiationWatts/m^2,SoftwareType,DateUTC
2013-05-02 00:01:00,35.0,13.0,-100.00,WNW,302,5.0,9.0,39,0.00,,,0.08,0.000000,,2013-05-02 06:01:00,
2013-05-02 00:12:00,35.0,13.0,-100.00,WNW,302,5.0,9.0,39,0.00,,,0.08,0.000000,,2013-05-02 06:12:00,
2013-05-02 02:42:00,32.0,12.0,-100.00,West,271,3.0,6.0,43,-99.99,,,0.08,0.000000,,2013-05-02 08:42:00,
2013-05-02 02:52:00,32.0,12.0,-100.00,West,271,3.0,6.0,43,-99.99,,,0.08,0.000000,,2013-05-02 08:52:00,
2013-05-02 03:02:00,32.0,12.0,-100.00,West,271,3.0,6.0,43,-99.99,,,0.08,0.000000,,2013-05-02 09:02:00,
2013-05-02 03:12:00,32.0,12.0,-100.00,West,271,3.0,6.0,43,-99.99,,,0.08,0.000000,,2013-05-02 09:12:00,
2013-05-02 03:42:00,30.0,13.0,-100.00,NW,311,1.0,6.0,49,0.00,,,0.08,0.000000,,2013-05-02 09:42:00,
2013-05-02 03:52:00,30.0,13.0,-100.00,NW,311,1.0,6.0,49,0.00,,,0.08,0.000000,,2013-05-02 09:52:00,
2013-05-02 04:03:00,30.0,13.0,-100.00,NW,311,1.0,6.0,49,0.00,,,0.08,0.000000,,2013-05-02 10:03:00,
2013-05-02 04:12:00,30.0,13.0,-100.00,NW,311,1.0,6.0,49,0.00,,,0.08,0.000000,,2013-05-02 10:12:00,
2013-05-02 04:33:00,30.0,17.0,-100.00,WSW,256,3.0,6.0,57,0.00,,,0.08,0.000000,,2013-05-02 10:33:00,
2013-05-02 04:42:00,30.0,17.0,-100.00,WSW,256,3.0,6.0,57,0.00,,,0.08,0.000000,,2013-05-02 10:42:00,
2013-05-02 04:53:00,30.0,17.0,-100.00,WSW,256,3.0,6.0,57,0.00,,,0.08,0.000000,,2013-05-02 10:53:00,
2013-05-02 05:02:00,30.0,17.0,-100.00,WSW,256,3.0,6.0,57,0.00,,,0.08,0.000000,,2013-05-02 11:02:00,
2013-05-02 05:12:00,30.0,17.0,-100.00,WSW,256,3.0,6.0,57,0.00,,,0.08,0.000000,,2013-05-02 11:12:00,
2013-05-02 05:32:00,33.0,21.0,-100.00,WNW,284,6.0,9.0,60,0.00,,,0.08,0.000000,,2013-05-02 11:32:00,
2013-05-02 05:42:00,33.0,21.0,-100.00,WNW,284,6.0,9.0,60,0.00,,,0.08,0.000000,,2013-05-02 11:42:00,
2013-05-02 05:52:00,33.0,21.0,-100.00,WNW,284,6.0,9.0,60,0.00,,,0.08,0.000000,,2013-05-02 11:52:00,
2013-05-02 06:01:00,33.0,21.0,-100.00,WNW,284,6.0,9.0,60,0.00,,,0.08,0.000000,,2013-05-02 12:01:00,
2013-05-02 06:11:00,33.0,21.0,-100.00,WNW,284,6.0,9.0,60,0.00,,,0.08,0.000000,,2013-05-02 12:11:00,
2013-05-02 07:42:00,38.0,22.0,-100.00,WNW,289,6.0,11.0,51,-99.99,,,0.08,92.000000,,2013-05-02 13:42:00,
2013-05-02 07:52:00,38.0,22.0,-100.00,WNW,289,6.0,11.0,51,-99.99,,,0.08,92.000000,,2013-05-02 13:52:00,
2013-05-02 08:02:00,38.0,22.0,-100.00,WNW,289,6.0,11.0,51,-99.99,,,0.08,92.000000,,2013-05-02 14:02:00,
2013-05-02 08:11:00,38.0,22.0,-100.00,WNW,289,6.0,11.0,51,-99.99,,,0.08,92.000000,,2013-05-02 14:11:00,
2013-05-02 08:43:00,41.0,21.0,-100.00,WSW,254,6.0,14.0,45,0.00,,,0.08,304.000000,,2013-05-02 14:43:00,
2013-05-02 08:52:00,41.0,21.0,-100.00,WSW,254,6.0,14.0,45,0.00,,,0.08,304.000000,,2013-05-02 14:52:00,
2013-05-02 09:02:00,41.0,21.0,-100.00,WSW,254,6.0,14.0,45,0.00,,,0.08,304.000000,,2013-05-02 15:02:00,
2013-05-02 09:12:00,41.0,21.0,-100.00,WSW,254,6.0,14.0,45,0.00,,,0.08,304.000000,,2013-05-02 15:12:00,
2013-05-02 09:13:00,43.0,19.0,-100.00,WSW,255,7.0,16.0,38,0.00,,,0.08,536.000000,,2013-05-02 15:13:00,
2013-05-02 09:33:00,43.0,19.0,-100.00,WSW,255,7.0,16.0,38,0.00,,,0.08,536.000000,,2013-05-02 15:33:00,
2013-05-02 09:43:00,43.0,19.0,-100.00,WSW,255,7.0,16.0,38,0.00,,,0.08,536.000000,,2013-05-02 15:43:00,
2013-05-02 10:03:00,43.0,19.0,-100.00,WSW,255,7.0,16.0,38,0.00,,,0.08,536.000000,,2013-05-02 16:03:00,
2013-05-02 10:32:00,44.0,17.0,-100.00,South,180,11.0,17.0,34,0.00,,,0.06,772.000000,,2013-05-02 16:32:00,
2013-05-02 10:43:00,44.0,17.0,-100.00,South,180,11.0,17.0,34,0.00,,,0.06,772.000000,,2013-05-02 16:43:00,
2013-05-02 10:52:00,44.0,17.0,-100.00,South,180,11.0,17.0,34,0.00,,,0.06,772.000000,,2013-05-02 16:52:00,
2013-05-02 11:02:00,44.0,17.0,-100.00,South,180,11.0,17.0,34,0.00,,,0.06,772.000000,,2013-05-02 17:02:00,
2013-05-02 11:12:00,44.0,17.0,-100.00,South,180,11.0,17.0,34,0.00,,,0.06,772.000000,,2013-05-02 17:12:00,
2013-05-02 11:42:00,44.0,16.0,-100.00,SW,219,5.0,20.0,32,0.00,,,0.00,683.000000,,2013-05-02 17:42:00,
2013-05-02 11:52:00,44.0,16.0,-100.00,SW,219,5.0,20.0,32,0.00,,,0.00,683.000000,,2013-05-02 17:52:00,
2013-05-02 12:01:00,44.0,16.0,-100.00,SW,219,5.0,20.0,32,0.00,,,0.00,683.000000,,2013-05-02 18:01:00,
2013-05-02 12:11:00,44.0,16.0,-100.00,SW,219,5.0,20.0,32,0.00,,,0.00,683.000000,,2013-05-02 18:11:00,
2013-05-02 12:42:00,45.0,21.0,-100.00,ENE,66,5.0,15.0,38,0.00,,,-99.99,372.000000,,2013-05-02 18:42:00,
2013-05-02 12:52:00,45.0,21.0,-100.00,ENE,66,5.0,15.0,38,0.00,,,-99.99,372.000000,,2013-05-02 18:52:00,
2013-05-02 13:01:00,45.0,21.0,-100.00,ENE,66,5.0,15.0,38,0.00,,,-99.99,372.000000,,2013-05-02 19:01:00,
2013-05-02 13:11:00,45.0,21.0,-100.00,ENE,66,5.0,15.0,38,0.00,,,-99.99,372.000000,,2013-05-02 19:11:00,
2013-05-02 13:32:00,39.0,29.0,-100.00,NE,37,8.0,21.0,66,0.00,,,0.00,489.000000,,2013-05-02 19:32:00,
2013-05-02 13:42:00,39.0,29.0,-100.00,NE,37,8.0,21.0,66,0.00,,,0.00,489.000000,,2013-05-02 19:42:00,
2013-05-02 13:52:00,39.0,29.0,-100.00,NE,37,8.0,21.0,66,0.00,,,0.00,489.000000,,2013-05-02 19:52:00,
2013-05-02 14:02:00,39.0,29.0,-100.00,NE,37,8.0,21.0,66,0.00,,,0.00,489.000000,,2013-05-02 20:02:00,
2013-05-02 14:11:00,39.0,29.0,-100.00,NE,37,8.0,21.0,66,0.00,,,0.00,489.000000,,2013-05-02 20:11:00,
2013-05-02 14:42:00,43.0,24.0,-100.00,North,4,12.0,21.0,47,0.00,,,0.00,624.000000,,2013-05-02 20:42:00,
2013-05-02 14:52:00,43.0,24.0,-100.00,North,4,12.0,21.0,47,0.00,,,0.00,624.000000,,2013-05-02 20:52:00,
2013-05-02 15:01:00,43.0,24.0,-100.00,North,4,12.0,21.0,47,0.00,,,0.00,624.000000,,2013-05-02 21:01:00,
2013-05-02 15:11:00,43.0,24.0,-100.00,North,4,12.0,21.0,47,0.00,,,0.00,624.000000,,2013-05-02 21:11:00,
2013-05-02 15:42:00,48.0,24.0,-100.00,SSE,154,4.0,15.0,38,0.00,,,0.00,625.000000,,2013-05-02 21:42:00,
2013-05-02 15:53:00,48.0,24.0,-100.00,SSE,154,4.0,15.0,38,0.00,,,0.00,625.000000,,2013-05-02 21:53:00,
2013-05-02 16:02:00,48.0,24.0,-100.00,SSE,154,4.0,15.0,38,0.00,,,0.00,625.000000,,2013-05-02 22:02:00,
2013-05-02 16:12:00,48.0,24.0,-100.00,SSE,154,4.0,15.0,38,0.00,,,0.00,625.000000,,2013-05-02 22:12:00,
2013-05-02 16:42:00,48.0,22.0,-100.00,North,1,3.0,11.0,35,0.00,,,0.00,442.000000,,2013-05-02 22:42:00,
2013-05-02 16:53:00,48.0,22.0,-100.00,North,1,3.0,11.0,35,0.00,,,0.00,442.000000,,2013-05-02 22:53:00,
2013-05-02 17:02:00,48.0,22.0,-100.00,North,1,3.0,11.0,35,0.00,,,0.00,442.000000,,2013-05-02 23:02:00,
2013-05-02 17:11:00,48.0,22.0,-100.00,North,1,3.0,11.0,35,0.00,,,0.00,442.000000,,2013-05-02 23:11:00,
2013-05-02 17:32:00,49.0,21.0,-100.00,SE,136,3.0,9.0,33,0.00,,,0.00,451.000000,,2013-05-02 23:32:00,
2013-05-02 17:42:00,49.0,21.0,-100.00,SE,136,3.0,9.0,33,0.00,,,0.00,451.000000,,2013-05-02 23:42:00,
2013-05-02 17:52:00,49.0,21.0,-100.00,SE,136,3.0,9.0,33,0.00,,,0.00,451.000000,,2013-05-02 23:52:00,
2013-05-02 18:01:00,49.0,21.0,-100.00,SE,136,3.0,9.0,33,0.00,,,0.00,451.000000,,2013-05-03 00:01:00,
2013-05-02 18:11:00,49.0,21.0,-100.00,SE,136,3.0,9.0,33,0.00,,,0.00,451.000000,,2013-05-03 00:11:00,
2013-05-02 19:32:00,45.0,20.0,-100.00,ENE,77,4.0,10.0,36,-99.99,,,0.00,230.000000,,2013-05-03 01:32:00,
2013-05-02 19:42:00,45.0,20.0,-100.00,ENE,77,4.0,10.0,36,-99.99,,,0.00,230.000000,,2013-05-03 01:42:00,
2013-05-02 19:52:00,45.0,20.0,-100.00,ENE,77,4.0,10.0,36,-99.99,,,0.00,230.000000,,2013-05-03 01:52:00,
2013-05-02 20:01:00,45.0,20.0,-100.00,ENE,77,4.0,10.0,36,-99.99,,,0.00,230.000000,,2013-05-03 02:01:00,
2013-05-02 20:11:00,45.0,20.0,-100.00,ENE,77,4.0,10.0,36,-99.99,,,0.00,230.000000,,2013-05-03 02:11:00,
2013-05-02 20:32:00,41.0,21.0,-100.00,West,273,2.0,5.0,45,0.00,,,0.00,16.000000,,2013-05-03 02:32:00,
2013-05-02 20:42:00,41.0,21.0,-100.00,West,273,2.0,5.0,45,0.00,,,0.00,16.000000,,2013-05-03 02:42:00,
2013-05-02 20:52:00,41.0,21.0,-100.00,West,273,2.0,5.0,45,0.00,,,0.00,16.000000,,2013-05-03 02:52:00,
2013-05-02 21:01:00,41.0,21.0,-100.00,West,273,2.0,5.0,45,0.00,,,0.00,16.000000,,2013-05-03 03:01:00,
2013-05-02 21:11:00,41.0,21.0,-100.00,West,273,2.0,5.0,45,0.00,,,0.00,16.000000,,2013-05-03 03:11:00,
2013-05-02 21:33:00,39.0,19.0,-100.00,WNW,294,3.0,3.0,44,0.00,,,0.00,0.000000,,2013-05-03 03:33:00,
2013-05-02 21:43:00,39.0,19.0,-100.00,WNW,294,3.0,3.0,44,0.00,,,0.00,0.000000,,2013-05-03 03:43:00,
2013-05-02 21:53:00,39.0,19.0,-100.00,WNW,294,3.0,3.0,44,0.00,,,0.00,0.000000,,2013-05-03 03:53:00,
2013-05-02 22:03:00,39.0,19.0,-100.00,WNW,294,3.0,3.0,44,0.00,,,0.00,0.000000,,2013-05-03 04:03:00,
2013-05-02 22:12:00,39.0,19.0,-100.00,WNW,294,3.0,3.0,44,0.00,,,0.00,0.000000,,2013-05-03 04:12:00,
2013-05-02 22:32:00,35.0,20.0,-100.00,NW,306,2.0,3.0,54,0.00,,,0.00,0.000000,,2013-05-03 04:32:00,
2013-05-02 22:43:00,35.0,20.0,-100.00,NW,306,2.0,3.0,54,0.00,,,0.00,0.000000,,2013-05-03 04:43:00,
2013-05-02 22:53:00,35.0,20.0,-100.00,NW,306,2.0,3.0,54,0.00,,,0.00,0.000000,,2013-05-03 04:53:00,
2013-05-02 23:02:00,35.0,20.0,-100.00,NW,306,2.0,3.0,54,0.00,,,0.00,0.000000,,2013-05-03 05:02:00,
2013-05-02 23:12:00,35.0,20.0,-100.00,NW,306,2.0,3.0,54,0.00,,,0.00,0.000000,,2013-05-03 05:12:00,
2013-05-02 23:32:00,37.0,22.0,-100.00,WSW,244,4.0,8.0,55,0.00,,,0.00,0.000000,,2013-05-03 05:32:00,
2013-05-02 23:42:00,37.0,22.0,-100.00,WSW,244,4.0,8.0,55,0.00,,,0.00,0.000000,,2013-05-03 05:42:00,
2013-05-02 23:52:00,37.0,22.0,-100.00,WSW,244,4.0,8.0,55,0.00,,,0.00,0.000000,,2013-05-03 05:52:00,